Weather History for PABI - October, 2012

Change the Weather History Date:

Thursday, October 25, 2012

  Actual Average Record
Temperature  
Mean Temperature 3 °F -  
Max Temperature 17 °F 21 °F 48 °F (1998)
Min Temperature -11 °F 10 °F -20 °F (1996)
Degree Days  
Heating Degree Days 62    
Moisture  
Dew Point 2 °F    
Average Humidity 72    
Maximum Humidity 83    
Minimum Humidity 49    
Precipitation  
Precipitation 0.01 in - - ()
Sea Level Pressure  
Sea Level Pressure 30.69 in    
Wind  
Wind Speed 8 mph (SE)    
Max Wind Speed 20 mph    
Max Gust Speed 22 mph    
Visibility 10 miles    
Events      
Averages and records for this station are not official NWS values.
T = Trace of Precipitation, MM = Missing Value Source: NWS Daily Summary

Daily Weather History Graph

Daily Weather History Graph

Search for Another Location

Airport or City:

Trip Planner

Search our weather history database for the weather conditions in past years. The results will help you decide how hot, cold, wet, or windy it might be!

Date:

Astronomy

Oct. 25, 2012 Rise Set
Actual Time 9:05 AM AKDT 5:47 PM AKDT
Civil Twilight 8:14 AM AKDT 6:37 PM AKDT
Nautical Twilight 7:18 AM AKDT 7:33 PM AKDT
Astronomical Twilight 6:23 AM AKDT 8:28 PM AKDT
Moon 4:37 PM AKDT (10/25) 4:00 AM AKDT (10/25)
Length of Visible Light 10h 23m
Length of Day
8h 41m
Waxing Gibbous, 85% of the Moon is Illuminated
Oct 25
Waxing Gibbous
Oct 29
Full
Nov 6
Last Quarter
Nov 13
New
Nov 20
First Quarter

Hourly Weather History & Observations

Time (AKDT) Temp. Windchill Dew Point Humidity Pressure Visibility Wind Dir Wind Speed Gust Speed Precip Events Conditions
12:53 AM -0.0 °F -9.9 °F -4.0 °F 83% 30.76 in 10.0 mi SW 4.6 mph - N/A   Clear
1:53 AM -2.9 °F - -7.1 °F 82% 30.75 in 10.0 mi Calm Calm - N/A   Clear
2:53 AM 6.1 °F -2.8 °F -0.0 °F 76% 30.74 in 10.0 mi SE 4.6 mph - N/A   Clear
3:53 AM -0.9 °F -11.0 °F -5.1 °F 83% 30.74 in 10.0 mi SE 4.6 mph - N/A   Clear
4:53 AM 8.1 °F -10.2 °F 1.9 °F 76% 30.71 in 10.0 mi ESE 17.3 mph 21.9 mph N/A   Clear
5:53 AM 9.0 °F -6.6 °F 3.0 °F 77% 30.72 in 10.0 mi ESE 12.7 mph - N/A   Clear
6:53 AM 10.0 °F -5.9 °F 3.0 °F 73% 30.71 in 10.0 mi ESE 13.8 mph - N/A   Clear
7:53 AM 6.1 °F -6.8 °F 1.0 °F 80% 30.72 in 10.0 mi SE 8.1 mph - N/A   Clear
8:53 AM 10.0 °F -4.5 °F 3.0 °F 73% 30.70 in 10.0 mi SE 11.5 mph - N/A   Clear
9:53 AM 10.0 °F -5.2 °F 3.0 °F 73% 30.70 in 10.0 mi ESE 12.7 mph - N/A   Clear
10:53 AM 10.9 °F -2.6 °F 3.0 °F 70% 30.71 in 10.0 mi ESE 10.4 mph - N/A   Clear
11:53 AM 14.0 °F 1.2 °F 5.0 °F 67% 30.69 in 10.0 mi East 10.4 mph - N/A   Partly Cloudy
12:53 PM 15.1 °F -2.0 °F 5.0 °F 64% 30.70 in 10.0 mi ESE 19.6 mph - N/A   Partly Cloudy
1:53 PM 16.0 °F 1.1 °F 6.1 °F 65% 30.69 in 10.0 mi ESE 15.0 mph - N/A   Partly Cloudy
2:53 PM 17.1 °F 3.0 °F 6.1 °F 62% 30.66 in 10.0 mi ESE 13.8 mph 21.9 mph N/A   Scattered Clouds
3:53 PM 17.1 °F 2.5 °F 6.1 °F 62% 30.67 in 10.0 mi SE 15.0 mph - N/A   Partly Cloudy
4:53 PM 15.1 °F 1.8 °F 5.0 °F 64% 30.65 in 10.0 mi ESE 11.5 mph - N/A   Scattered Clouds
5:53 PM 14.0 °F 2.0 °F 5.0 °F 67% 30.65 in 10.0 mi ESE 9.2 mph - 0.01 in   Scattered Clouds
6:53 PM 14.0 °F -0.2 °F 5.0 °F 67% 30.64 in 10.0 mi SE 12.7 mph - N/A   Scattered Clouds
7:53 PM 12.0 °F 1.5 °F 3.9 °F 70% 30.64 in 10.0 mi SE 6.9 mph - N/A   Scattered Clouds
8:53 PM 7.0 °F 0.1 °F 1.9 °F 80% 30.65 in 10.0 mi South 3.5 mph - N/A   Scattered Clouds
9:53 PM 5.0 °F -2.1 °F -0.0 °F 80% 30.65 in 10.0 mi South 3.5 mph - N/A   Clear
10:53 PM 1.9 °F -5.6 °F -2.9 °F 80% 30.64 in 10.0 mi SSW 3.5 mph - N/A   Clear
11:53 PM 1.0 °F - -2.9 °F 83% 30.64 in 10.0 mi Calm Calm - N/A   Clear